Time,TemperatureF,DewpointF,PressureIn,WindDirection,WindDirectionDegrees,WindSpeedMPH,WindSpeedGustMPH,Humidity,HourlyPrecipIn,Conditions,Clouds,dailyrainin,SoftwareType,DateUTC
2013-01-29 00:02:00,17.1,-0.6,17.72,WNW,282,2.2,3.6,45,0.00,,---,0.00,VWS V14.00,2013-01-29 07:02:00,
2013-01-29 00:07:00,16.9,-0.8,17.72,SW,230,0.0,0.0,45,0.00,,---,0.00,VWS V14.00,2013-01-29 07:07:00,
2013-01-29 00:13:00,16.7,-0.9,17.72,West,278,2.7,3.1,45,0.00,,---,0.00,VWS V14.00,2013-01-29 07:13:00,
2013-01-29 00:18:00,16.5,-1.1,17.72,WNW,294,3.6,3.6,45,0.00,,---,0.00,VWS V14.00,2013-01-29 07:18:00,
2013-01-29 00:23:00,16.2,-1.4,17.72,SW,236,2.7,4.5,45,0.00,,---,0.00,VWS V14.00,2013-01-29 07:23:00,
2013-01-29 00:28:00,16.2,-1.4,17.72,WNW,284,3.1,4.0,45,0.00,,---,0.00,VWS V14.00,2013-01-29 07:28:00,
2013-01-29 00:33:00,16.0,-1.6,17.72,West,273,4.0,5.4,45,0.00,,---,0.00,VWS V14.00,2013-01-29 07:33:00,
2013-01-29 00:38:00,16.0,-1.6,17.72,West,275,2.7,3.1,45,0.00,,---,0.00,VWS V14.00,2013-01-29 07:38:00,
2013-01-29 00:43:00,15.8,-1.3,17.72,NW,310,5.4,5.4,46,0.00,,---,0.00,VWS V14.00,2013-01-29 07:43:00,
2013-01-29 00:48:00,15.4,-1.6,17.72,West,272,2.7,3.6,46,0.00,,---,0.00,VWS V14.00,2013-01-29 07:48:00,
2013-01-29 00:53:00,15.4,-1.6,17.72,SW,220,2.7,4.0,46,0.00,,---,0.00,VWS V14.00,2013-01-29 07:53:00,
2013-01-29 00:58:00,15.3,-1.8,17.72,WNW,295,3.1,3.6,46,0.00,,---,0.00,VWS V14.00,2013-01-29 07:58:00,
2013-01-29 01:03:00,15.3,-1.8,17.72,West,271,4.9,7.2,46,0.00,,---,0.00,VWS V14.00,2013-01-29 08:03:00,
2013-01-29 01:09:00,15.1,-2.0,17.72,West,279,2.2,5.4,46,0.00,,---,0.00,VWS V14.00,2013-01-29 08:09:00,
2013-01-29 01:14:00,15.1,-2.4,17.72,West,267,6.3,7.6,45,0.00,,---,0.00,VWS V14.00,2013-01-29 08:14:00,
2013-01-29 01:19:00,14.9,-2.6,17.72,West,279,3.1,5.4,45,0.00,,---,0.00,VWS V14.00,2013-01-29 08:19:00,
2013-01-29 01:24:00,14.9,-2.6,17.72,WNW,291,3.6,7.6,45,0.00,,---,0.00,VWS V14.00,2013-01-29 08:24:00,
2013-01-29 01:29:00,14.5,-2.9,17.72,WNW,296,5.8,5.8,45,0.00,,---,0.00,VWS V14.00,2013-01-29 08:29:00,
2013-01-29 01:34:00,14.5,-2.9,17.72,WSW,246,4.0,5.8,45,0.00,,---,0.00,VWS V14.00,2013-01-29 08:34:00,
2013-01-29 01:39:00,14.5,-2.9,17.72,WNW,300,5.4,5.4,45,0.00,,---,0.00,VWS V14.00,2013-01-29 08:39:00,
2013-01-29 01:44:00,14.4,-3.1,17.72,SSW,212,3.1,4.0,45,0.00,,---,0.00,VWS V14.00,2013-01-29 08:44:00,
2013-01-29 01:49:00,14.2,-3.2,17.72,SW,225,3.1,4.5,45,0.00,,---,0.00,VWS V14.00,2013-01-29 08:49:00,
2013-01-29 01:54:00,14.2,-3.2,17.72,WNW,282,3.6,5.8,45,0.00,,---,0.00,VWS V14.00,2013-01-29 08:54:00,
2013-01-29 01:59:00,14.2,-3.2,17.72,WNW,288,7.6,7.6,45,0.00,,---,0.00,VWS V14.00,2013-01-29 08:59:00,
2013-01-29 02:04:00,14.0,-3.4,17.72,WSW,250,3.6,3.6,45,0.00,,---,0.00,VWS V14.00,2013-01-29 09:04:00,
2013-01-29 02:09:00,13.8,-3.6,17.72,WNW,290,3.1,4.9,45,0.00,,---,0.00,VWS V14.00,2013-01-29 09:09:00,
2013-01-29 02:15:00,13.8,-3.6,17.72,SW,233,4.0,5.4,45,0.00,,---,0.00,VWS V14.00,2013-01-29 09:15:00,
2013-01-29 02:20:00,13.6,-3.8,17.72,West,268,3.6,5.8,45,0.00,,---,0.00,VWS V14.00,2013-01-29 09:20:00,
2013-01-29 02:25:00,13.3,-4.1,17.72,West,276,0.0,0.0,45,0.00,,---,0.00,VWS V14.00,2013-01-29 09:25:00,
2013-01-29 02:30:00,12.9,-4.4,17.72,WSW,252,0.0,3.6,45,0.00,,---,0.00,VWS V14.00,2013-01-29 09:30:00,
2013-01-29 02:35:00,12.7,-4.6,17.72,West,262,4.0,4.0,45,0.00,,---,0.00,VWS V14.00,2013-01-29 09:35:00,
2013-01-29 02:40:00,12.7,-4.6,17.72,SW,223,3.1,4.9,45,0.00,,---,0.00,VWS V14.00,2013-01-29 09:40:00,
2013-01-29 02:45:00,12.9,-4.4,17.72,WSW,250,4.0,5.4,45,0.00,,---,0.00,VWS V14.00,2013-01-29 09:45:00,
2013-01-29 02:50:00,12.7,-4.6,17.72,WSW,250,2.2,2.2,45,0.00,,---,0.00,VWS V14.00,2013-01-29 09:50:00,
2013-01-29 02:55:00,12.7,-4.6,17.72,WSW,243,3.6,4.0,45,0.00,,---,0.00,VWS V14.00,2013-01-29 09:55:00,
2013-01-29 03:00:00,12.6,-4.7,17.72,ENE,68,3.1,3.1,45,0.00,,---,0.00,VWS V14.00,2013-01-29 10:00:00,
2013-01-29 03:05:00,12.4,-4.9,17.72,ENE,65,0.0,0.0,45,0.00,,---,0.00,VWS V14.00,2013-01-29 10:05:00,
2013-01-29 03:10:00,12.0,-5.2,17.72,ENE,68,0.0,0.0,45,0.00,,---,0.00,VWS V14.00,2013-01-29 10:10:00,
2013-01-29 03:15:00,11.7,-5.6,17.72,ENE,68,0.0,0.0,45,0.00,,---,0.00,VWS V14.00,2013-01-29 10:15:00,
2013-01-29 03:20:00,11.3,-5.9,17.72,NW,316,2.7,3.1,45,0.00,,---,0.00,VWS V14.00,2013-01-29 10:20:00,
2013-01-29 03:26:00,11.1,-6.1,17.72,WSW,239,0.0,2.2,45,0.00,,---,0.00,VWS V14.00,2013-01-29 10:26:00,
2013-01-29 03:31:00,11.1,-6.1,17.72,WSW,239,0.0,0.0,45,0.00,,---,0.00,VWS V14.00,2013-01-29 10:31:00,
2013-01-29 03:36:00,11.1,-6.1,17.72,WNW,289,0.0,0.0,45,0.00,,---,0.00,VWS V14.00,2013-01-29 10:36:00,
2013-01-29 03:41:00,11.3,-5.9,17.72,SW,224,2.7,2.7,45,0.00,,---,0.00,VWS V14.00,2013-01-29 10:41:00,
2013-01-29 03:46:00,11.3,-5.9,17.72,WNW,284,4.0,6.3,45,0.00,,---,0.00,VWS V14.00,2013-01-29 10:46:00,
2013-01-29 03:51:00,11.3,-5.9,17.72,WSW,250,4.0,4.0,45,0.00,,---,0.00,VWS V14.00,2013-01-29 10:51:00,
2013-01-29 03:56:00,11.7,-5.6,17.72,West,277,5.4,5.4,45,0.00,,---,0.00,VWS V14.00,2013-01-29 10:56:00,
2013-01-29 04:01:00,11.8,-5.4,17.72,SW,230,5.8,5.8,45,0.00,,---,0.00,VWS V14.00,2013-01-29 11:01:00,
2013-01-29 04:06:00,12.2,-5.1,17.72,NNW,332,3.6,3.6,45,0.00,,---,0.00,VWS V14.00,2013-01-29 11:06:00,
2013-01-29 04:11:00,12.4,-4.9,17.72,NNW,331,5.4,6.3,45,0.00,,---,0.00,VWS V14.00,2013-01-29 11:11:00,
2013-01-29 04:16:00,12.4,-4.9,17.72,WNW,293,2.7,3.6,45,0.00,,---,0.00,VWS V14.00,2013-01-29 11:16:00,
2013-01-29 04:22:00,12.2,-5.1,17.72,West,261,4.0,4.0,45,0.00,,---,0.00,VWS V14.00,2013-01-29 11:22:00,
2013-01-29 04:27:00,12.2,-5.1,17.72,West,276,2.7,3.1,45,0.00,,---,0.00,VWS V14.00,2013-01-29 11:27:00,
2013-01-29 04:32:00,12.2,-5.1,17.72,WSW,254,3.6,3.6,45,0.00,,---,0.00,VWS V14.00,2013-01-29 11:32:00,
2013-01-29 04:37:00,12.0,-5.2,17.72,West,271,2.7,3.6,45,0.00,,---,0.00,VWS V14.00,2013-01-29 11:37:00,
2013-01-29 04:42:00,12.2,-5.1,17.72,NNW,329,2.2,2.2,45,0.00,,---,0.00,VWS V14.00,2013-01-29 11:42:00,
2013-01-29 04:47:00,12.2,-5.1,17.72,NW,307,4.0,4.0,45,0.00,,---,0.00,VWS V14.00,2013-01-29 11:47:00,
2013-01-29 04:52:00,12.4,-4.9,17.72,NW,304,2.7,2.7,45,0.00,,---,0.00,VWS V14.00,2013-01-29 11:52:00,
2013-01-29 04:57:00,12.2,-5.1,17.72,WNW,290,4.5,4.5,45,0.00,,---,0.00,VWS V14.00,2013-01-29 11:57:00,
2013-01-29 05:03:00,12.2,-5.1,17.72,WNW,291,3.6,3.6,45,0.00,,---,0.00,VWS V14.00,2013-01-29 12:03:00,
2013-01-29 05:08:00,12.2,-5.1,17.72,WNW,292,5.4,5.8,45,0.00,,---,0.00,VWS V14.00,2013-01-29 12:08:00,
2013-01-29 05:13:00,12.2,-5.1,17.72,NW,308,5.4,5.4,45,0.00,,---,0.00,VWS V14.00,2013-01-29 12:13:00,
2013-01-29 05:18:00,12.2,-5.1,17.72,WNW,288,2.2,3.1,45,0.00,,---,0.00,VWS V14.00,2013-01-29 12:18:00,
2013-01-29 05:23:00,11.8,-5.4,17.72,WNW,283,2.2,2.2,45,0.00,,---,0.00,VWS V14.00,2013-01-29 12:23:00,
2013-01-29 05:28:00,11.7,-5.6,17.72,West,281,2.7,2.7,45,0.00,,---,0.00,VWS V14.00,2013-01-29 12:28:00,
2013-01-29 05:33:00,11.3,-5.9,17.72,WNW,289,0.0,0.0,45,0.00,,---,0.00,VWS V14.00,2013-01-29 12:33:00,
2013-01-29 05:38:00,11.1,-6.1,17.72,WNW,289,3.1,3.1,45,0.00,,---,0.00,VWS V14.00,2013-01-29 12:38:00,
2013-01-29 05:43:00,10.9,-6.2,17.72,West,268,0.0,2.2,45,0.00,,---,0.00,VWS V14.00,2013-01-29 12:43:00,
2013-01-29 05:48:00,10.9,-6.2,17.72,West,278,3.6,3.6,45,0.00,,---,0.00,VWS V14.00,2013-01-29 12:48:00,
2013-01-29 05:54:00,10.8,-6.4,17.72,NW,304,0.0,2.7,45,0.00,,---,0.00,VWS V14.00,2013-01-29 12:54:00,
2013-01-29 05:59:00,10.8,-6.4,17.72,WNW,303,0.0,2.7,45,0.00,,---,0.00,VWS V14.00,2013-01-29 12:59:00,
2013-01-29 06:04:00,10.6,-6.6,17.72,WNW,288,0.0,0.0,45,0.00,,---,0.00,VWS V14.00,2013-01-29 13:04:00,
2013-01-29 06:09:00,10.4,-6.7,17.72,WNW,288,0.0,0.0,45,0.00,,---,0.00,VWS V14.00,2013-01-29 13:09:00,
2013-01-29 06:14:00,10.4,-6.7,17.72,WNW,296,2.7,2.7,45,0.00,,---,0.00,VWS V14.00,2013-01-29 13:14:00,
2013-01-29 06:19:00,10.4,-6.7,17.72,WNW,293,3.1,3.1,45,0.00,,---,0.00,VWS V14.00,2013-01-29 13:19:00,
2013-01-29 06:24:00,10.4,-6.7,17.72,WNW,299,0.0,0.0,45,0.00,,---,0.00,VWS V14.00,2013-01-29 13:24:00,
2013-01-29 06:29:00,10.4,-6.7,17.72,WNW,296,2.2,3.1,45,0.00,,---,0.00,VWS V14.00,2013-01-29 13:29:00,
2013-01-29 06:34:00,10.4,-6.7,17.72,WNW,296,0.0,2.2,45,0.00,,---,0.00,VWS V14.00,2013-01-29 13:34:00,
2013-01-29 06:39:00,10.2,-6.9,17.72,WNW,296,0.0,0.0,45,0.00,,---,0.00,VWS V14.00,2013-01-29 13:39:00,
2013-01-29 06:44:00,10.2,-6.9,17.72,WNW,301,0.0,4.0,45,0.00,,---,0.00,VWS V14.00,2013-01-29 13:44:00,
2013-01-29 06:49:00,10.2,-6.9,17.72,West,279,0.0,0.0,45,0.00,,---,0.00,VWS V14.00,2013-01-29 13:49:00,
2013-01-29 06:55:00,10.2,-6.9,17.72,West,279,0.0,3.1,45,0.00,,---,0.00,VWS V14.00,2013-01-29 13:55:00,
2013-01-29 07:00:00,10.4,-6.7,17.72,West,260,0.0,2.2,45,0.00,,---,0.00,VWS V14.00,2013-01-29 14:00:00,
2013-01-29 07:05:00,10.6,-6.6,17.72,WNW,299,0.0,3.6,45,0.00,,---,0.00,VWS V14.00,2013-01-29 14:05:00,
2013-01-29 07:10:00,10.8,-6.4,17.72,West,262,3.1,5.8,45,0.00,,---,0.00,VWS V14.00,2013-01-29 14:10:00,
2013-01-29 07:15:00,10.8,-6.4,17.72,WNW,290,0.0,2.2,45,0.00,,---,0.00,VWS V14.00,2013-01-29 14:15:00,
2013-01-29 07:20:00,10.8,-6.4,17.72,WNW,286,0.0,0.0,45,0.00,,---,0.00,VWS V14.00,2013-01-29 14:20:00,
2013-01-29 07:25:00,10.8,-6.4,17.72,WNW,285,0.0,0.0,45,0.00,,---,0.00,VWS V14.00,2013-01-29 14:25:00,
2013-01-29 07:30:00,10.4,-6.7,17.72,WNW,285,0.0,0.0,45,0.00,,---,0.00,VWS V14.00,2013-01-29 14:30:00,
2013-01-29 07:35:00,10.2,-6.9,17.72,WNW,285,0.0,0.0,45,0.00,,---,0.00,VWS V14.00,2013-01-29 14:35:00,
2013-01-29 07:40:00,10.0,-7.1,17.72,WNW,285,0.0,0.0,45,0.00,,---,0.00,VWS V14.00,2013-01-29 14:40:00,
2013-01-29 07:46:00,9.7,-7.4,17.72,WNW,286,0.0,0.0,45,0.00,,---,0.00,VWS V14.00,2013-01-29 14:46:00,
2013-01-29 07:51:00,10.2,-6.9,17.72,NW,310,0.0,2.7,45,0.00,,---,0.00,VWS V14.00,2013-01-29 14:51:00,
2013-01-29 07:56:00,10.9,-6.2,17.72,SW,221,5.4,8.7,45,0.00,,---,0.00,VWS V14.00,2013-01-29 14:56:00,
2013-01-29 08:01:00,11.5,-5.7,17.72,West,267,0.0,2.7,45,0.00,,---,0.00,VWS V14.00,2013-01-29 15:01:00,
2013-01-29 08:06:00,11.8,-5.4,17.72,NNW,346,3.6,3.6,45,0.00,,---,0.00,VWS V14.00,2013-01-29 15:06:00,
2013-01-29 08:11:00,12.0,-5.2,17.72,WNW,293,0.0,0.0,45,0.00,,---,0.00,VWS V14.00,2013-01-29 15:11:00,
2013-01-29 08:16:00,12.4,-4.9,17.72,SW,214,2.7,2.7,45,0.00,,---,0.00,VWS V14.00,2013-01-29 15:16:00,
2013-01-29 08:21:00,12.7,-4.6,17.72,SW,224,2.7,3.1,45,0.00,,---,0.00,VWS V14.00,2013-01-29 15:21:00,
2013-01-29 08:26:00,13.3,-4.1,17.72,West,271,3.6,4.0,45,0.00,,---,0.00,VWS V14.00,2013-01-29 15:26:00,
2013-01-29 08:31:00,14.0,-3.4,17.72,WSW,254,5.8,6.7,45,0.00,,---,0.00,VWS V14.00,2013-01-29 15:31:00,
2013-01-29 08:37:00,14.5,-3.4,17.72,West,268,4.9,5.4,44,0.00,,---,0.00,VWS V14.00,2013-01-29 15:37:00,
2013-01-29 08:42:00,14.9,-3.1,17.72,SW,235,4.9,4.9,44,0.00,,---,0.00,VWS V14.00,2013-01-29 15:42:00,
2013-01-29 08:47:00,15.4,-2.6,17.72,SW,227,8.1,8.1,44,0.00,,---,0.00,VWS V14.00,2013-01-29 15:47:00,
2013-01-29 08:52:00,15.8,-2.2,17.72,North,353,6.3,6.3,44,0.00,,---,0.00,VWS V14.00,2013-01-29 15:52:00,
2013-01-29 08:57:00,16.5,-1.6,17.72,WNW,289,0.0,4.0,44,0.00,,---,0.00,VWS V14.00,2013-01-29 15:57:00,
2013-01-29 09:02:00,17.1,-1.1,17.72,NNW,332,5.8,5.8,44,0.00,,---,0.00,VWS V14.00,2013-01-29 16:02:00,
2013-01-29 09:07:00,17.8,-0.4,17.72,SW,218,2.7,2.7,44,0.00,,---,0.00,VWS V14.00,2013-01-29 16:07:00,
2013-01-29 09:12:00,18.3,-0.4,17.72,SW,218,3.6,3.6,43,0.00,,---,0.00,VWS V14.00,2013-01-29 16:12:00,
2013-01-29 09:18:00,18.7,-0.1,17.72,WSW,254,4.0,4.0,43,0.00,,---,0.00,VWS V14.00,2013-01-29 16:18:00,
2013-01-29 09:23:00,19.2,0.4,17.72,WNW,302,0.0,4.0,43,0.00,,---,0.00,VWS V14.00,2013-01-29 16:23:00,
2013-01-29 09:28:00,19.8,0.9,17.72,West,261,0.0,0.0,43,0.00,,---,0.00,VWS V14.00,2013-01-29 16:28:00,
2013-01-29 09:33:00,20.3,1.4,17.72,WSW,249,5.4,5.4,43,0.00,,---,0.00,VWS V14.00,2013-01-29 16:33:00,
2013-01-29 09:38:00,21.0,2.0,17.72,SW,232,3.1,3.1,43,0.00,,---,0.00,VWS V14.00,2013-01-29 16:38:00,
2013-01-29 09:43:00,21.6,2.5,17.72,WNW,298,4.0,5.8,43,0.00,,---,0.00,VWS V14.00,2013-01-29 16:43:00,
2013-01-29 09:48:00,22.6,3.5,17.72,WSW,250,4.0,6.3,43,0.00,,---,0.00,VWS V14.00,2013-01-29 16:48:00,
2013-01-29 09:53:00,23.0,3.8,17.72,SSW,205,10.5,10.5,43,0.00,,---,0.00,VWS V14.00,2013-01-29 16:53:00,
2013-01-29 09:58:00,23.5,3.8,17.72,NW,307,4.0,5.4,42,0.00,,---,0.00,VWS V14.00,2013-01-29 16:58:00,
2013-01-29 10:04:00,24.6,4.8,17.72,WSW,250,3.1,4.0,42,0.00,,---,0.00,VWS V14.00,2013-01-29 17:04:00,
2013-01-29 10:09:00,25.9,6.0,17.72,SW,231,6.3,8.3,42,0.00,,---,0.00,VWS V14.00,2013-01-29 17:09:00,
2013-01-29 10:14:00,26.4,6.4,17.72,WSW,258,8.1,8.1,42,0.00,,---,0.00,VWS V14.00,2013-01-29 17:14:00,
2013-01-29 10:19:00,26.4,6.4,17.72,NW,323,8.3,8.3,42,0.00,,---,0.00,VWS V14.00,2013-01-29 17:19:00,
2013-01-29 10:24:00,27.1,6.6,17.72,NNW,338,8.1,8.1,41,0.00,,---,0.00,VWS V14.00,2013-01-29 17:24:00,
2013-01-29 10:29:00,27.9,7.2,17.72,North,353,5.8,5.8,41,0.00,,---,0.00,VWS V14.00,2013-01-29 17:29:00,
2013-01-29 10:34:00,28.2,7.6,17.72,West,266,8.1,8.1,41,0.00,,---,0.00,VWS V14.00,2013-01-29 17:34:00,
2013-01-29 10:39:00,28.8,8.0,17.72,NW,309,6.3,7.6,41,0.00,,---,0.00,VWS V14.00,2013-01-29 17:39:00,
2013-01-29 10:45:00,29.5,8.7,17.72,West,263,6.7,10.5,41,0.00,,---,0.00,VWS V14.00,2013-01-29 17:45:00,
2013-01-29 10:50:00,30.4,9.5,17.72,NW,306,9.2,10.5,41,0.00,,---,0.00,VWS V14.00,2013-01-29 17:50:00,
2013-01-29 10:55:00,30.7,9.8,17.72,West,262,14.1,14.1,41,0.00,,---,0.00,VWS V14.00,2013-01-29 17:55:00,
2013-01-29 11:00:00,30.6,9.7,17.72,WNW,285,5.4,12.3,41,0.00,,---,0.00,VWS V14.00,2013-01-29 18:00:00,
2013-01-29 11:05:00,31.1,10.2,17.72,West,266,8.7,8.7,41,0.00,,---,0.00,VWS V14.00,2013-01-29 18:05:00,
2013-01-29 11:10:00,31.1,10.2,17.72,West,267,4.0,8.1,41,0.00,,---,0.00,VWS V14.00,2013-01-29 18:10:00,
2013-01-29 11:15:00,31.8,10.8,17.72,NW,322,8.7,8.7,41,0.00,,---,0.00,VWS V14.00,2013-01-29 18:15:00,
2013-01-29 11:20:00,30.9,10.0,17.72,WSW,238,8.1,8.1,41,0.00,,---,0.00,VWS V14.00,2013-01-29 18:20:00,
2013-01-29 11:25:00,31.3,10.3,17.72,NNW,333,10.1,10.1,41,0.00,,---,0.00,VWS V14.00,2013-01-29 18:25:00,
2013-01-29 11:30:00,31.5,10.5,17.72,WNW,286,8.7,11.0,41,0.00,,---,0.00,VWS V14.00,2013-01-29 18:30:00,
2013-01-29 11:35:00,31.8,10.8,17.72,WSW,251,8.1,8.1,41,0.00,,---,0.00,VWS V14.00,2013-01-29 18:35:00,
2013-01-29 11:41:00,31.8,10.8,17.72,WNW,282,6.3,6.3,41,0.00,,---,0.00,VWS V14.00,2013-01-29 18:41:00,
2013-01-29 11:46:00,32.5,11.5,17.72,NW,304,5.4,8.7,41,0.00,,---,0.00,VWS V14.00,2013-01-29 18:46:00,
2013-01-29 11:51:00,33.6,12.4,17.72,NW,306,7.6,7.6,41,0.00,,---,0.00,VWS V14.00,2013-01-29 18:51:00,
2013-01-29 11:56:00,33.8,12.1,17.72,WNW,282,3.6,11.9,40,0.00,,---,0.00,VWS V14.00,2013-01-29 18:56:00,
2013-01-29 12:01:00,33.6,12.4,17.72,WNW,284,4.0,7.6,41,0.00,,---,0.00,VWS V14.00,2013-01-29 19:01:00,
2013-01-29 12:06:00,33.4,12.3,17.72,North,8,8.3,8.3,41,0.00,,---,0.00,VWS V14.00,2013-01-29 19:06:00,
2013-01-29 12:11:00,33.1,12.0,17.72,West,266,5.4,8.1,41,0.00,,---,0.00,VWS V14.00,2013-01-29 19:11:00,
2013-01-29 12:16:00,33.3,12.1,17.72,WSW,244,4.0,4.0,41,0.00,,---,0.00,VWS V14.00,2013-01-29 19:16:00,
2013-01-29 12:21:00,32.9,11.8,17.72,North,3,5.4,6.3,41,0.00,,---,0.00,VWS V14.00,2013-01-29 19:21:00,
2013-01-29 12:26:00,32.4,11.3,17.72,WSW,255,4.5,4.5,41,0.00,,---,0.00,VWS V14.00,2013-01-29 19:26:00,
2013-01-29 12:31:00,33.3,12.1,17.72,WNW,283,5.8,5.8,41,0.00,,---,0.00,VWS V14.00,2013-01-29 19:31:00,
2013-01-29 12:36:00,34.0,12.2,17.72,West,266,10.1,10.1,40,0.00,,---,0.00,VWS V14.00,2013-01-29 19:36:00,
2013-01-29 12:42:00,33.4,12.3,17.72,NNW,329,7.6,7.6,41,0.00,,---,0.00,VWS V14.00,2013-01-29 19:42:00,
2013-01-29 12:47:00,32.7,11.6,17.72,West,263,8.1,8.7,41,0.00,,---,0.00,VWS V14.00,2013-01-29 19:47:00,
2013-01-29 12:52:00,32.2,11.1,17.72,NW,321,3.1,9.6,41,0.00,,---,0.00,VWS V14.00,2013-01-29 19:52:00,
2013-01-29 12:57:00,32.7,11.6,17.72,West,279,5.8,6.3,41,0.00,,---,0.00,VWS V14.00,2013-01-29 19:57:00,
2013-01-29 13:02:00,32.7,11.6,17.72,WSW,243,5.8,7.6,41,0.00,,---,0.00,VWS V14.00,2013-01-29 20:02:00,
2013-01-29 13:07:00,32.9,11.8,17.72,NW,317,6.3,6.3,41,0.00,,---,0.00,VWS V14.00,2013-01-29 20:07:00,
2013-01-29 13:12:00,33.8,12.1,17.72,WNW,302,5.4,7.6,40,0.00,,---,0.00,VWS V14.00,2013-01-29 20:12:00,
2013-01-29 13:17:00,33.1,12.0,17.72,WNW,289,8.3,8.3,41,0.00,,---,0.00,VWS V14.00,2013-01-29 20:17:00,
2013-01-29 13:22:00,33.1,12.0,17.72,NW,313,8.1,8.1,41,0.00,,---,0.00,VWS V14.00,2013-01-29 20:22:00,
2013-01-29 13:27:00,32.5,11.5,17.72,SW,233,7.6,7.6,41,0.00,,---,0.00,VWS V14.00,2013-01-29 20:27:00,
2013-01-29 13:33:00,32.0,11.0,17.72,WSW,247,6.3,8.3,41,0.00,,---,0.00,VWS V14.00,2013-01-29 20:33:00,
2013-01-29 13:38:00,31.3,10.3,17.72,WNW,301,8.7,15.0,41,0.00,,---,0.00,VWS V14.00,2013-01-29 20:38:00,
2013-01-29 13:43:00,31.1,10.2,17.72,NW,305,3.1,8.1,41,0.00,,---,0.00,VWS V14.00,2013-01-29 20:43:00,
2013-01-29 13:48:00,31.8,10.8,17.72,WNW,288,5.8,8.7,41,0.00,,---,0.00,VWS V14.00,2013-01-29 20:48:00,
2013-01-29 13:53:00,31.6,10.6,17.72,WNW,301,7.2,8.3,41,0.00,,---,0.00,VWS V14.00,2013-01-29 20:53:00,
2013-01-29 13:58:00,30.9,10.0,17.72,NW,307,7.6,8.1,41,0.00,,---,0.00,VWS V14.00,2013-01-29 20:58:00,
2013-01-29 14:05:00,30.6,9.7,17.72,West,276,4.0,8.7,41,0.00,,---,0.00,VWS V14.00,2013-01-29 21:05:00,
2013-01-29 14:10:00,30.2,9.4,17.72,WNW,285,7.6,16.3,41,0.00,,---,0.00,VWS V14.00,2013-01-29 21:10:00,
2013-01-29 14:15:00,30.0,9.2,17.72,West,260,6.3,8.7,41,0.00,,---,0.00,VWS V14.00,2013-01-29 21:15:00,
2013-01-29 14:20:00,30.0,9.2,17.72,West,280,5.8,7.6,41,0.00,,---,0.00,VWS V14.00,2013-01-29 21:20:00,
2013-01-29 14:26:00,29.8,9.0,17.72,NNW,329,8.3,8.3,41,0.00,,---,0.00,VWS V14.00,2013-01-29 21:26:00,
2013-01-29 14:31:00,30.0,9.2,17.72,NNW,334,3.1,3.1,41,0.00,,---,0.00,VWS V14.00,2013-01-29 21:31:00,
2013-01-29 14:36:00,30.6,9.7,17.72,NNW,327,10.1,10.1,41,0.00,,---,0.00,VWS V14.00,2013-01-29 21:36:00,
2013-01-29 14:42:00,30.7,9.8,17.72,West,281,8.1,8.1,41,0.00,,---,0.00,VWS V14.00,2013-01-29 21:42:00,
2013-01-29 14:47:00,30.6,9.7,17.72,West,268,4.9,10.5,41,0.00,,---,0.00,VWS V14.00,2013-01-29 21:47:00,
2013-01-29 14:52:00,30.6,9.7,17.72,NW,324,5.4,8.1,41,0.00,,---,0.00,VWS V14.00,2013-01-29 21:52:00,
2013-01-29 14:57:00,30.4,9.5,17.72,North,353,5.4,10.1,41,0.00,,---,0.00,VWS V14.00,2013-01-29 21:57:00,
2013-01-29 15:02:00,30.2,9.4,17.72,NNW,333,7.6,7.6,41,0.00,,---,0.00,VWS V14.00,2013-01-29 22:02:00,
2013-01-29 15:07:00,29.8,9.0,17.72,North,2,5.4,5.4,41,0.00,,---,0.00,VWS V14.00,2013-01-29 22:07:00,
2013-01-29 15:12:00,29.8,9.0,17.72,West,278,12.3,12.3,41,0.00,,---,0.00,VWS V14.00,2013-01-29 22:12:00,
2013-01-29 15:17:00,29.5,8.7,17.72,NNW,339,5.8,8.1,41,0.00,,---,0.00,VWS V14.00,2013-01-29 22:17:00,
2013-01-29 15:22:00,29.5,8.7,17.72,WNW,298,5.8,6.7,41,0.00,,---,0.00,VWS V14.00,2013-01-29 22:22:00,
2013-01-29 15:27:00,29.5,8.7,17.72,NW,310,2.2,4.9,41,0.00,,---,0.00,VWS V14.00,2013-01-29 22:27:00,
2013-01-29 15:32:00,29.8,9.0,17.72,West,272,3.6,3.6,41,0.00,,---,0.00,VWS V14.00,2013-01-29 22:32:00,
2013-01-29 15:37:00,29.5,8.7,17.72,WNW,303,2.7,3.1,41,0.00,,---,0.00,VWS V14.00,2013-01-29 22:37:00,
2013-01-29 15:43:00,29.3,8.5,17.72,NNE,13,4.0,11.0,41,0.00,,---,0.00,VWS V14.00,2013-01-29 22:43:00,
2013-01-29 15:48:00,29.3,8.5,17.72,WNW,284,0.0,8.7,41,0.00,,---,0.00,VWS V14.00,2013-01-29 22:48:00,
2013-01-29 15:53:00,29.5,8.7,17.72,WNW,282,2.2,2.7,41,0.00,,---,0.00,VWS V14.00,2013-01-29 22:53:00,
2013-01-29 15:58:00,29.5,8.7,17.72,North,353,10.5,10.5,41,0.00,,---,0.00,VWS V14.00,2013-01-29 22:58:00,
2013-01-29 16:03:00,29.3,8.5,17.72,West,281,14.5,14.5,41,0.00,,---,0.00,VWS V14.00,2013-01-29 23:03:00,
2013-01-29 16:08:00,28.9,8.2,17.72,West,273,5.8,5.8,41,0.00,,---,0.00,VWS V14.00,2013-01-29 23:08:00,
2013-01-29 16:13:00,28.8,8.0,17.72,West,281,6.3,9.2,41,0.00,,---,0.00,VWS V14.00,2013-01-29 23:13:00,
2013-01-29 16:19:00,28.6,7.9,17.72,West,271,5.4,5.8,41,0.00,,---,0.00,VWS V14.00,2013-01-29 23:19:00,
2013-01-29 16:24:00,28.6,7.9,17.72,North,3,4.0,13.2,41,0.00,,---,0.00,VWS V14.00,2013-01-29 23:24:00,
2013-01-29 16:29:00,28.6,7.9,17.72,North,6,7.6,7.6,41,0.00,,---,0.00,VWS V14.00,2013-01-29 23:29:00,
2013-01-29 16:34:00,28.6,7.9,17.72,WSW,253,4.0,5.8,41,0.00,,---,0.00,VWS V14.00,2013-01-29 23:34:00,
2013-01-29 16:39:00,28.6,7.9,17.72,WNW,292,5.8,6.3,41,0.00,,---,0.00,VWS V14.00,2013-01-29 23:39:00,
2013-01-29 16:44:00,28.6,7.9,17.72,NNW,329,5.8,8.3,41,0.00,,---,0.00,VWS V14.00,2013-01-29 23:44:00,
2013-01-29 16:49:00,28.4,7.7,17.72,North,0,5.4,5.8,41,0.00,,---,0.00,VWS V14.00,2013-01-29 23:49:00,
2013-01-29 16:55:00,28.0,7.4,17.72,West,281,5.8,5.8,41,0.00,,---,0.00,VWS V14.00,2013-01-29 23:55:00,
2013-01-29 17:00:00,27.9,7.2,17.72,WNW,287,3.1,5.4,41,0.00,,---,0.00,VWS V14.00,2013-01-30 00:00:00,
2013-01-29 17:05:00,27.7,7.1,17.72,West,281,3.6,6.3,41,0.00,,---,0.00,VWS V14.00,2013-01-30 00:05:00,
2013-01-29 17:10:00,27.5,6.9,17.72,NW,320,11.9,11.9,41,0.00,,---,0.00,VWS V14.00,2013-01-30 00:10:00,
2013-01-29 17:15:00,27.3,6.7,17.72,WNW,299,6.3,6.3,41,0.00,,---,0.00,VWS V14.00,2013-01-30 00:15:00,
2013-01-29 17:20:00,27.1,6.6,17.72,West,265,4.0,13.2,41,0.00,,---,0.00,VWS V14.00,2013-01-30 00:20:00,
2013-01-29 17:25:00,27.0,6.4,17.72,NW,317,4.0,4.0,41,0.00,,---,0.00,VWS V14.00,2013-01-30 00:25:00,
2013-01-29 17:30:00,26.6,6.6,17.72,NW,324,2.7,4.0,42,0.00,,---,0.00,VWS V14.00,2013-01-30 00:30:00,
2013-01-29 17:35:00,26.4,6.4,17.72,WNW,294,2.7,2.7,42,0.00,,---,0.00,VWS V14.00,2013-01-30 00:35:00,
2013-01-29 17:41:00,26.1,6.1,17.72,NW,322,5.8,7.6,42,0.00,,---,0.00,VWS V14.00,2013-01-30 00:41:00,
2013-01-29 17:46:00,25.7,5.8,17.72,WNW,284,3.1,6.3,42,0.00,,---,0.00,VWS V14.00,2013-01-30 00:46:00,
2013-01-29 17:51:00,25.5,5.6,17.72,WNW,300,3.1,4.9,42,0.00,,---,0.00,VWS V14.00,2013-01-30 00:51:00,
2013-01-29 17:56:00,25.2,5.3,17.72,WNW,286,3.1,5.8,42,0.00,,---,0.00,VWS V14.00,2013-01-30 00:56:00,
2013-01-29 18:01:00,25.0,5.1,17.72,NW,316,3.6,5.4,42,0.00,,---,0.00,VWS V14.00,2013-01-30 01:01:00,
2013-01-29 18:06:00,24.8,5.0,17.72,NNE,16,5.8,5.8,42,0.00,,---,0.00,VWS V14.00,2013-01-30 01:06:00,
2013-01-29 18:11:00,24.6,4.8,17.72,WNW,300,4.0,5.8,42,0.00,,---,0.00,VWS V14.00,2013-01-30 01:11:00,
2013-01-29 18:16:00,24.4,4.7,17.72,West,281,0.0,3.1,42,0.00,,---,0.00,VWS V14.00,2013-01-30 01:16:00,
2013-01-29 18:22:00,24.3,4.5,17.72,West,277,2.2,4.0,42,0.00,,---,0.00,VWS V14.00,2013-01-30 01:22:00,
2013-01-29 18:27:00,24.3,4.5,17.72,West,274,3.1,6.3,42,0.00,,---,0.00,VWS V14.00,2013-01-30 01:27:00,
2013-01-29 18:32:00,24.1,4.8,17.72,WNW,293,2.2,4.0,43,0.00,,---,0.00,VWS V14.00,2013-01-30 01:32:00,
2013-01-29 18:37:00,24.3,5.0,17.72,NW,312,3.1,3.1,43,0.00,,---,0.00,VWS V14.00,2013-01-30 01:37:00,
2013-01-29 18:42:00,24.4,5.2,17.72,West,265,0.0,0.0,43,0.00,,---,0.00,VWS V14.00,2013-01-30 01:42:00,
2013-01-29 18:47:00,24.4,5.2,17.72,WSW,256,2.7,2.7,43,0.00,,---,0.00,VWS V14.00,2013-01-30 01:47:00,
2013-01-29 18:52:00,24.4,5.2,17.72,WNW,289,0.0,0.0,43,0.00,,---,0.00,VWS V14.00,2013-01-30 01:52:00,
2013-01-29 18:57:00,24.3,5.0,17.72,NW,311,2.2,3.1,43,0.00,,---,0.00,VWS V14.00,2013-01-30 01:57:00,
2013-01-29 19:02:00,24.3,5.0,17.72,NW,311,0.0,0.0,43,0.00,,---,0.00,VWS V14.00,2013-01-30 02:02:00,
2013-01-29 19:07:00,24.1,4.8,17.72,NW,311,0.0,0.0,43,0.00,,---,0.00,VWS V14.00,2013-01-30 02:07:00,
2013-01-29 19:12:00,23.9,4.7,17.72,NW,311,0.0,0.0,43,0.00,,---,0.00,VWS V14.00,2013-01-30 02:12:00,
2013-01-29 19:17:00,23.7,4.5,17.72,NW,311,0.0,0.0,43,0.00,,---,0.00,VWS V14.00,2013-01-30 02:17:00,
2013-01-29 19:22:00,23.5,4.3,17.72,NW,311,0.0,0.0,43,0.00,,---,0.00,VWS V14.00,2013-01-30 02:22:00,
2013-01-29 19:28:00,23.5,4.3,17.72,NW,311,0.0,0.0,43,0.00,,---,0.00,VWS V14.00,2013-01-30 02:28:00,
2013-01-29 19:33:00,23.4,4.2,17.72,NW,311,0.0,0.0,43,0.00,,---,0.00,VWS V14.00,2013-01-30 02:33:00,
2013-01-29 19:38:00,23.5,4.3,17.72,NW,308,0.0,4.0,43,0.00,,---,0.00,VWS V14.00,2013-01-30 02:38:00,
2013-01-29 19:43:00,23.4,4.2,17.72,WNW,291,0.0,3.1,43,0.00,,---,0.00,VWS V14.00,2013-01-30 02:43:00,
2013-01-29 19:48:00,23.4,4.2,17.72,WNW,298,0.0,2.7,43,0.00,,---,0.00,VWS V14.00,2013-01-30 02:48:00,
2013-01-29 19:53:00,23.4,4.2,17.72,NW,322,0.0,0.0,43,0.00,,---,0.00,VWS V14.00,2013-01-30 02:53:00,
2013-01-29 19:58:00,23.2,4.0,17.72,NW,321,0.0,0.0,43,0.00,,---,0.00,VWS V14.00,2013-01-30 02:58:00,
2013-01-29 20:03:00,23.4,4.7,17.72,NNW,341,6.3,6.3,44,0.00,,---,0.00,VWS V14.00,2013-01-30 03:03:00,
2013-01-29 20:08:00,23.4,4.2,17.72,West,275,0.0,2.7,43,0.00,,---,0.00,VWS V14.00,2013-01-30 03:08:00,
2013-01-29 20:13:00,23.5,4.3,17.72,North,0,3.6,5.4,43,0.00,,---,0.00,VWS V14.00,2013-01-30 03:13:00,
2013-01-29 20:18:00,23.5,4.3,17.72,North,2,0.0,0.0,43,0.00,,---,0.00,VWS V14.00,2013-01-30 03:18:00,
2013-01-29 20:23:00,23.5,4.3,17.72,NW,326,0.0,3.6,43,0.00,,---,0.00,VWS V14.00,2013-01-30 03:23:00,
2013-01-29 20:29:00,23.5,4.3,17.72,NW,305,0.0,0.0,43,0.00,,---,0.00,VWS V14.00,2013-01-30 03:29:00,
2013-01-29 20:34:00,23.7,4.5,17.72,NNE,16,4.9,6.3,43,0.00,,---,0.00,VWS V14.00,2013-01-30 03:34:00,
2013-01-29 20:39:00,23.9,4.7,17.72,West,275,0.0,0.0,43,0.00,,---,0.00,VWS V14.00,2013-01-30 03:39:00,
2013-01-29 20:44:00,24.1,4.8,17.72,WNW,282,4.0,4.5,43,0.00,,---,0.00,VWS V14.00,2013-01-30 03:44:00,
2013-01-29 20:49:00,24.3,5.0,17.72,NNW,334,2.7,2.7,43,0.00,,---,0.00,VWS V14.00,2013-01-30 03:49:00,
2013-01-29 20:54:00,24.3,5.0,17.72,North,5,3.1,3.1,43,0.00,,---,0.00,VWS V14.00,2013-01-30 03:54:00,
2013-01-29 20:59:00,24.4,4.7,17.72,North,357,2.2,9.6,42,0.00,,---,0.00,VWS V14.00,2013-01-30 03:59:00,
2013-01-29 21:04:00,24.4,4.7,17.72,NNW,334,4.9,4.9,42,0.00,,---,0.00,VWS V14.00,2013-01-30 04:04:00,
2013-01-29 21:09:00,24.4,4.7,17.72,North,350,2.7,2.7,42,0.00,,---,0.00,VWS V14.00,2013-01-30 04:09:00,
2013-01-29 21:14:00,24.6,4.8,17.72,West,279,0.0,3.1,42,0.00,,---,0.00,VWS V14.00,2013-01-30 04:14:00,
2013-01-29 21:19:00,24.6,4.8,17.72,WNW,298,3.1,4.0,42,0.00,,---,0.00,VWS V14.00,2013-01-30 04:19:00,
2013-01-29 21:24:00,24.4,4.7,17.72,North,353,5.4,6.3,42,0.00,,---,0.00,VWS V14.00,2013-01-30 04:24:00,
2013-01-29 21:30:00,24.4,4.7,17.72,North,353,3.1,4.0,42,0.00,,---,0.00,VWS V14.00,2013-01-30 04:30:00,
2013-01-29 21:35:00,24.4,4.7,17.72,North,0,4.0,5.8,42,0.00,,---,0.00,VWS V14.00,2013-01-30 04:35:00,
2013-01-29 21:40:00,24.4,4.7,17.72,NW,325,8.3,8.3,42,0.00,,---,0.00,VWS V14.00,2013-01-30 04:40:00,
2013-01-29 21:45:00,24.3,4.5,17.72,NNW,337,6.3,6.3,42,0.00,,---,0.00,VWS V14.00,2013-01-30 04:45:00,
2013-01-29 21:50:00,24.3,4.5,17.72,North,0,6.3,6.3,42,0.00,,---,0.00,VWS V14.00,2013-01-30 04:50:00,
2013-01-29 21:55:00,24.3,4.5,17.72,NNW,344,4.5,5.8,42,0.00,,---,0.00,VWS V14.00,2013-01-30 04:55:00,
2013-01-29 22:03:00,24.1,4.3,17.72,NW,320,3.1,6.3,42,0.00,,---,0.00,VWS V14.00,2013-01-30 05:03:00,
2013-01-29 22:04:00,24.1,4.3,17.72,NNW,335,5.4,5.8,42,0.00,,---,0.00,VWS V14.00,2013-01-30 05:04:00,
2013-01-29 22:07:00,24.1,4.3,17.72,NW,307,4.0,5.4,42,0.00,,---,0.00,VWS V14.00,2013-01-30 05:07:00,
2013-01-29 22:12:00,23.7,4.0,17.72,NNW,329,5.8,5.8,42,0.00,,---,0.00,VWS V14.00,2013-01-30 05:12:00,
2013-01-29 22:17:00,23.5,3.8,17.72,NNW,334,2.7,3.1,42,0.00,,---,0.00,VWS V14.00,2013-01-30 05:17:00,
2013-01-29 22:22:00,23.4,3.7,17.72,WNW,299,4.0,6.3,42,0.00,,---,0.00,VWS V14.00,2013-01-30 05:22:00,
2013-01-29 22:27:00,23.4,3.7,17.72,NNE,25,0.0,3.1,42,0.00,,---,0.00,VWS V14.00,2013-01-30 05:27:00,
2013-01-29 22:32:00,23.2,3.5,17.72,NNW,341,8.7,8.7,42,0.00,,---,0.00,VWS V14.00,2013-01-30 05:32:00,
2013-01-29 22:37:00,23.2,3.5,17.72,NW,319,4.9,6.3,42,0.00,,---,0.00,VWS V14.00,2013-01-30 05:37:00,
2013-01-29 22:42:00,23.2,3.5,17.72,SW,224,6.3,6.3,42,0.00,,---,0.00,VWS V14.00,2013-01-30 05:42:00,
2013-01-29 22:48:00,23.2,3.5,17.72,NW,324,15.4,15.4,42,0.00,,---,0.00,VWS V14.00,2013-01-30 05:48:00,
2013-01-29 22:53:00,23.2,3.5,17.72,NNW,342,3.1,8.1,42,0.00,,---,0.00,VWS V14.00,2013-01-30 05:53:00,
2013-01-29 22:58:00,23.2,3.5,17.72,West,261,4.9,4.9,42,0.00,,---,0.00,VWS V14.00,2013-01-30 05:58:00,
2013-01-29 23:03:00,23.0,3.8,17.72,West,263,4.0,4.0,43,0.00,,---,0.00,VWS V14.00,2013-01-30 06:03:00,
2013-01-29 23:08:00,22.8,3.7,17.72,West,268,4.0,4.0,43,0.00,,---,0.00,VWS V14.00,2013-01-30 06:08:00,
2013-01-29 23:13:00,22.8,3.7,17.72,West,270,3.6,5.4,43,0.00,,---,0.00,VWS V14.00,2013-01-30 06:13:00,
2013-01-29 23:18:00,22.6,3.5,17.72,NW,304,5.8,5.8,43,0.00,,---,0.00,VWS V14.00,2013-01-30 06:18:00,
2013-01-29 23:23:00,22.5,3.4,17.72,NNW,327,3.1,7.6,43,0.00,,---,0.00,VWS V14.00,2013-01-30 06:23:00,
2013-01-29 23:29:00,22.5,3.4,17.72,West,264,5.4,8.7,43,0.00,,---,0.00,VWS V14.00,2013-01-30 06:29:00,
2013-01-29 23:34:00,22.6,3.5,17.72,NW,323,8.7,8.7,43,0.00,,---,0.00,VWS V14.00,2013-01-30 06:34:00,
2013-01-29 23:39:00,22.5,3.4,17.72,NNW,335,3.1,3.1,43,0.00,,---,0.00,VWS V14.00,2013-01-30 06:39:00,
2013-01-29 23:44:00,22.6,3.5,17.72,West,273,3.1,3.1,43,0.00,,---,0.00,VWS V14.00,2013-01-30 06:44:00,
2013-01-29 23:49:00,22.6,3.5,17.72,West,271,8.7,8.7,43,0.00,,---,0.00,VWS V14.00,2013-01-30 06:49:00,
2013-01-29 23:55:00,22.5,3.4,17.72,WNW,288,2.7,3.1,43,0.00,,---,0.00,VWS V14.00,2013-01-30 06:55:00,